Darstellungsparameter: Aktuell verwendete Einstellungen:
Skalierung der Graphiken ... ?
xyx+y,   Skalierungsfaktor:      Skalierung: Modus: x, Faktor: 1
Darstellungszeitraum ... ?
Vom - - bis: - -   Zeitraum: 25.09.2010 - 29.09.2010
Min/Max/Avg-Anzeige ... ?
Zeige MMA aktuell
Zeige MMA Monat
Zeige MMA alles
Zeige --A aktuell
Zeige --A Monat
Zeige --A alles
Keine MMA-Anzeige
MMA:
Average (ber die Originaldaten)
MMA-Basis: 23.02.2003 - 30.09.2020
Quicknavigation für Darstellung... ?
Tage:      1T, 2T, 3T, 5T -1T -2T -3T -5T +1T +2T +3T +5T
Wochen: 1W, 2W, 3W -1W -2W -3W +1W +2W +3W
Monate: 1M, 3M, 6M -1M -3M -6M +1M +3M +6M
Jahre:    1J, 3J, 5J, 10J -1J -3J -5J -10J +1J +3J +5J +10J
Nutze für die Darstellung ... ?
Originaldaten oder Mittelwerte auf ...
Stundenbasis Tagesbasis Wochenbasis
Monatsbasis Jahresbasis      Datenbasis: Original-Daten
Darstellen als:
Statistik (Auto) Statistik J:M      Darstellung:
Zur Graphik,    zurück zur Übersicht aller Sensoren.
 
Tabellarische Datenbersicht: ?
 
Sensor: Nr:Datum:Temp:Abs-Feuchte:Windchill:Wind:
Aussen-T/F 1 25-09-2010 00:10:04 12.4 C 10.38 g/m*3 12.4 C 0 km/h
2 25-09-2010 00:22:04 12.5 C 10.44 g/m*3 12.5 C 0 km/h
3 25-09-2010 00:34:04 12.5 C 10.44 g/m*3 12.5 C 0 km/h
4 25-09-2010 00:46:04 12.5 C 10.44 g/m*3 12.5 C 0 km/h
5 25-09-2010 00:58:05 12.5 C 10.44 g/m*3 12.5 C 0 km/h
6 25-09-2010 01:10:05 12.5 C 10.44 g/m*3 12.5 C 0 km/h
7 25-09-2010 01:22:05 12.5 C 10.44 g/m*3 12.5 C 0 km/h
8 25-09-2010 01:34:05 12.5 C 10.44 g/m*3 12.5 C 0 km/h
9 25-09-2010 01:46:05 12.5 C 10.44 g/m*3 12.5 C 0 km/h
10 25-09-2010 01:58:05 12.6 C 10.51 g/m*3 12.6 C 0 km/h
11 25-09-2010 02:10:05 12.6 C 10.51 g/m*3 12.6 C 0 km/h
12 25-09-2010 02:22:05 12.6 C 10.51 g/m*3 12.6 C 0 km/h
13 25-09-2010 02:34:05 12.6 C 10.51 g/m*3 12.6 C 0 km/h
14 25-09-2010 02:46:05 12.6 C 10.51 g/m*3 12.6 C 0 km/h
15 25-09-2010 02:58:05 12.6 C 10.51 g/m*3 12.6 C 0 km/h
16 25-09-2010 03:10:05 12.7 C 10.58 g/m*3 12.7 C 0 km/h
17 25-09-2010 03:22:05 12.6 C 10.51 g/m*3 12.6 C 0 km/h
18 25-09-2010 03:34:05 12.6 C 10.51 g/m*3 12.6 C 0 km/h
19 25-09-2010 03:46:05 12.6 C 10.51 g/m*3 12.6 C 0 km/h
20 25-09-2010 03:58:05 12.6 C 10.51 g/m*3 12.6 C 0 km/h
21 25-09-2010 04:10:05 12.6 C 10.51 g/m*3 12.6 C 0 km/h
22 25-09-2010 04:22:05 12.5 C 10.44 g/m*3 12.5 C 0 km/h
23 25-09-2010 04:34:05 12.6 C 10.51 g/m*3 12.6 C 0 km/h
24 25-09-2010 04:46:05 12.5 C 10.44 g/m*3 12.5 C 0 km/h
25 25-09-2010 04:58:06 12.5 C 10.44 g/m*3 12.5 C 0 km/h
Sensor: Nr:Datum:Temp:Abs-Feuchte:Windchill:Wind:
Aussen-T/F 26 25-09-2010 05:10:06 12.5 C 10.44 g/m*3 12.5 C 0 km/h
27 25-09-2010 05:22:06 12.4 C 10.38 g/m*3 12.4 C 0 km/h
28 25-09-2010 05:34:06 12.4 C 10.38 g/m*3 12.4 C 0 km/h
29 25-09-2010 05:46:06 12.3 C 10.32 g/m*3 12.3 C 0 km/h
30 25-09-2010 05:58:06 12.3 C 10.21 g/m*3 12.3 C 0 km/h
31 25-09-2010 06:10:06 12.1 C 10.08 g/m*3 12.1 C 0 km/h
32 25-09-2010 06:22:06 12.1 C 10.08 g/m*3 12.1 C 0 km/h
33 25-09-2010 06:34:06 12.1 C 10.08 g/m*3 12.1 C 0 km/h
34 25-09-2010 06:46:06 12 C 10.02 g/m*3 12 C 0 km/h
35 25-09-2010 06:58:06 12 C 10.02 g/m*3 12 C 0 km/h
36 25-09-2010 07:10:06 12 C 10.02 g/m*3 12 C 0 km/h
37 25-09-2010 07:22:06 11.9 C 9.96 g/m*3 11.9 C 0 km/h
38 25-09-2010 07:34:06 11.9 C 9.96 g/m*3 11.9 C 0 km/h
39 25-09-2010 07:46:02 11.8 C 9.89 g/m*3 11.8 C 0 km/h
40 25-09-2010 07:58:02 11.8 C 9.89 g/m*3 11.8 C 0 km/h
41 25-09-2010 08:10:02 11.7 C 9.83 g/m*3 11.7 C 0 km/h
42 25-09-2010 08:22:02 11.6 C 9.77 g/m*3 11.6 C 0 km/h
43 25-09-2010 08:34:02 11.2 C 9.43 g/m*3 11.2 C 0 km/h
44 25-09-2010 08:46:02 11 C 9.31 g/m*3 11 C 0 km/h
45 25-09-2010 08:58:02 10.8 C 9.19 g/m*3 10.8 C 0 km/h
46 25-09-2010 09:10:01 10.6 C 9.08 g/m*3 10.6 C 0 km/h
47 25-09-2010 09:22:02 10.4 C 8.96 g/m*3 10.4 C 0 km/h
48 25-09-2010 09:34:02 10.5 C 8.92 g/m*3 10.5 C 0 km/h
49 25-09-2010 09:46:02 10.5 C 8.83 g/m*3 10.5 C 0 km/h
50 25-09-2010 09:58:02 10.4 C 8.29 g/m*3 10.4 C 0 km/h
Sensor: Nr:Datum:Temp:Abs-Feuchte:Windchill:Wind:
Aussen-T/F 51 25-09-2010 10:10:03 10.5 C 8.15 g/m*3 10.5 C 0 km/h
52 25-09-2010 10:22:02 10.8 C 8.2 g/m*3 10.8 C 0 km/h
53 25-09-2010 10:34:02 11.1 C 8.36 g/m*3 11.1 C 0 km/h
54 25-09-2010 10:46:01 11.3 C 8.36 g/m*3 11.3 C 0 km/h
55 25-09-2010 10:58:01 11.5 C 8.16 g/m*3 11.5 C 0 km/h
56 25-09-2010 11:10:02 11.6 C 7.8 g/m*3 11.6 C 0 km/h
57 25-09-2010 11:22:01 12.1 C 7.72 g/m*3 12.1 C 0 km/h
58 25-09-2010 11:34:02 12.3 C 7.38 g/m*3 12.3 C 0 km/h
59 25-09-2010 11:46:01 12.5 C 7.26 g/m*3 12.5 C 0 km/h
60 25-09-2010 11:58:01 13 C 7.03 g/m*3 13 C 0 km/h
61 25-09-2010 12:10:02 12.8 C 6.83 g/m*3 12.8 C 0 km/h
62 25-09-2010 12:22:01 12.8 C 7.06 g/m*3 12.8 C 0 km/h
63 25-09-2010 12:34:02 12.4 C 6.88 g/m*3 12.4 C 0 km/h
64 25-09-2010 12:46:02 11.8 C 6.84 g/m*3 11.8 C 0 km/h
65 25-09-2010 12:58:02 12.4 C 6.88 g/m*3 12.4 C 0 km/h
66 25-09-2010 13:10:02 12.7 C 6.68 g/m*3 12.7 C 0 km/h
67 25-09-2010 13:22:01 13 C 6.35 g/m*3 13 C 0 km/h
68 25-09-2010 13:34:02 13.8 C 6.43 g/m*3 13.8 C 0 km/h
69 25-09-2010 13:46:01 13.5 C 5.38 g/m*3 13.5 C 0 km/h
70 25-09-2010 13:58:01 13.3 C 5.31 g/m*3 13.3 C 0 km/h
71 25-09-2010 14:10:02 13.7 C 5.45 g/m*3 13.7 C 0 km/h
72 25-09-2010 14:22:01 13.5 C 5.5 g/m*3 13.5 C 0 km/h
73 25-09-2010 14:34:02 13.8 C 5.36 g/m*3 13.8 C 0 km/h
74 25-09-2010 14:46:01 14.4 C 5.32 g/m*3 14.4 C 0 km/h
75 25-09-2010 14:58:01 15.8 C 5.12 g/m*3 15.8 C 0 km/h
Sensor: Nr:Datum:Temp:Abs-Feuchte:Windchill:Wind:
Aussen-T/F 76 25-09-2010 15:10:02 14.8 C 4.43 g/m*3 14.8 C 0 km/h
77 25-09-2010 15:22:02 14.5 C 4.6 g/m*3 14.5 C 0 km/h
78 25-09-2010 15:34:01 15.7 C 4.68 g/m*3 15.7 C 0 km/h
79 25-09-2010 15:46:02 15.5 C 4.63 g/m*3 15.5 C 0 km/h
80 25-09-2010 15:58:02 14.7 C 5.04 g/m*3 14.7 C 0 km/h
81 25-09-2010 16:10:01 14.2 C 4.88 g/m*3 14.2 C 0 km/h
82 25-09-2010 16:22:02 14.4 C 5.07 g/m*3 14.4 C 0 km/h
83 25-09-2010 16:34:01 14.7 C 5.16 g/m*3 14.7 C 0 km/h
84 25-09-2010 16:46:02 15.6 C 4.79 g/m*3 15.6 C 0 km/h
85 25-09-2010 16:58:02 14.7 C 4.91 g/m*3 14.7 C 0 km/h
86 25-09-2010 17:10:02 14.3 C 4.91 g/m*3 14.3 C 0 km/h
87 25-09-2010 17:22:02 14.8 C 5.32 g/m*3 14.8 C 0 km/h
88 25-09-2010 17:34:03 15.6 C 5.19 g/m*3 15.6 C 0 km/h
89 25-09-2010 17:46:02 16.8 C 5.15 g/m*3 16.8 C 0 km/h
90 25-09-2010 17:58:02 16.5 C 4.77 g/m*3 16.5 C 0 km/h
91 25-09-2010 18:10:01 15.4 C 4.47 g/m*3 15.4 C 0 km/h
92 25-09-2010 18:22:01 14.3 C 4.67 g/m*3 14.3 C 0 km/h
93 25-09-2010 18:34:02 13.9 C 4.92 g/m*3 13.9 C 0 km/h
94 25-09-2010 18:46:02 13.8 C 5.36 g/m*3 13.8 C 0 km/h
95 25-09-2010 18:58:02 13.7 C 5.8 g/m*3 13.7 C 0 km/h
96 25-09-2010 19:10:02 13.5 C 5.5 g/m*3 13.5 C 0 km/h
97 25-09-2010 19:22:02 13.1 C 5.59 g/m*3 13.1 C 0 km/h
98 25-09-2010 19:34:02 13 C 5.67 g/m*3 13 C 0 km/h
99 25-09-2010 19:46:02 12.7 C 5.9 g/m*3 12.7 C 0 km/h
100 25-09-2010 19:58:02 12.6 C 6.08 g/m*3 12.6 C 0 km/h
Sensor: Nr:Datum:Temp:Abs-Feuchte:Windchill:Wind:
Aussen-T/F 101 25-09-2010 20:10:02 12.5 C 5.72 g/m*3 12.5 C 0 km/h
102 25-09-2010 20:22:02 12.2 C 5.61 g/m*3 12.2 C 0 km/h
103 25-09-2010 20:34:02 11.8 C 5.79 g/m*3 11.8 C 0 km/h
104 25-09-2010 20:46:02 11.1 C 6.04 g/m*3 11.1 C 0 km/h
105 25-09-2010 20:58:02 10.9 C 6.17 g/m*3 10.9 C 0 km/h
106 25-09-2010 21:10:02 10.4 C 6.17 g/m*3 10.4 C 0 km/h
107 25-09-2010 21:22:03 10.2 C 6.28 g/m*3 10.2 C 0 km/h
108 25-09-2010 21:34:02 10.1 C 6.34 g/m*3 10.1 C 0 km/h
109 25-09-2010 21:46:03 10 C 6.3 g/m*3 10 C 0 km/h
110 25-09-2010 21:58:03 9.9 C 6.44 g/m*3 9.9 C 0 km/h
111 25-09-2010 22:10:02 9.9 C 6.54 g/m*3 9.9 C 0 km/h
112 25-09-2010 22:22:02 10.2 C 6.57 g/m*3 10.2 C 0 km/h
113 25-09-2010 22:34:02 10.5 C 6.69 g/m*3 10.5 C 0 km/h
114 25-09-2010 22:46:02 10.5 C 6.69 g/m*3 10.5 C 0 km/h
115 25-09-2010 22:58:02 10.3 C 6.9 g/m*3 10.3 C 0 km/h
116 25-09-2010 23:10:02 9.6 C 7.15 g/m*3 9.6 C 0 km/h
117 25-09-2010 23:22:02 9.3 C 7.28 g/m*3 9.3 C 0 km/h
118 25-09-2010 23:34:01 9.2 C 7.5 g/m*3 9.2 C 0 km/h
119 25-09-2010 23:46:02 9.1 C 7.45 g/m*3 9.1 C 0 km/h
120 25-09-2010 23:58:02 9.2 C 7.59 g/m*3 9.2 C 0 km/h
121 26-09-2010 00:10:01 9.1 C 7.63 g/m*3 9.1 C 0 km/h
122 26-09-2010 00:22:02 9.5 C 7.92 g/m*3 9.5 C 0 km/h
123 26-09-2010 00:34:02 9.5 C 7.92 g/m*3 9.5 C 0 km/h
124 26-09-2010 00:46:02 9.6 C 7.79 g/m*3 9.6 C 0 km/h
125 26-09-2010 00:58:02 9.5 C 7.55 g/m*3 9.5 C 0 km/h
Sensor: Nr:Datum:Temp:Abs-Feuchte:Windchill:Wind:
Aussen-T/F 126 26-09-2010 01:10:02 9.5 C 7.37 g/m*3 9.5 C 0 km/h
127 26-09-2010 01:22:02 9.5 C 7.28 g/m*3 9.5 C 0 km/h
128 26-09-2010 01:34:02 9.4 C 7.15 g/m*3 9.4 C 0 km/h
129 26-09-2010 01:46:01 9.5 C 7.19 g/m*3 9.5 C 0 km/h
130 26-09-2010 01:58:01 9.5 C 7.19 g/m*3 9.5 C 0 km/h
131 26-09-2010 02:10:02 9.5 C 7.19 g/m*3 9.5 C 0 km/h
132 26-09-2010 02:22:01 9.5 C 7.1 g/m*3 9.5 C 0 km/h
133 26-09-2010 02:34:01 9.3 C 7.01 g/m*3 9.3 C 0 km/h
134 26-09-2010 02:46:01 9.4 C 6.96 g/m*3 9.4 C 0 km/h
135 26-09-2010 02:58:01 9.4 C 6.96 g/m*3 9.4 C 0 km/h
136 26-09-2010 03:10:01 9.3 C 6.92 g/m*3 9.3 C 0 km/h
137 26-09-2010 03:22:01 9.3 C 7.01 g/m*3 9.3 C 0 km/h
138 26-09-2010 03:34:01 9.3 C 7.1 g/m*3 9.3 C 0 km/h
139 26-09-2010 03:46:01 9.1 C 7.1 g/m*3 9.1 C 0 km/h
140 26-09-2010 03:58:01 9 C 7.23 g/m*3 9 C 0 km/h
141 26-09-2010 04:10:01 9 C 7.32 g/m*3 9 C 0 km/h
142 26-09-2010 04:22:01 9 C 7.23 g/m*3 9 C 0 km/h
143 26-09-2010 04:34:02 8.9 C 7.27 g/m*3 8.9 C 0 km/h
144 26-09-2010 04:46:01 8.7 C 7.26 g/m*3 8.7 C 0 km/h
145 26-09-2010 04:58:01 8.8 C 7.31 g/m*3 8.8 C 0 km/h
146 26-09-2010 05:10:02 9 C 7.32 g/m*3 9 C 0 km/h
147 26-09-2010 05:22:01 9.1 C 7.36 g/m*3 9.1 C 0 km/h
148 26-09-2010 05:34:01 9 C 7.32 g/m*3 9 C 0 km/h
149 26-09-2010 05:46:01 9 C 7.32 g/m*3 9 C 0 km/h
150 26-09-2010 05:58:01 9 C 7.32 g/m*3 9 C 0 km/h
Sensor: Nr:Datum:Temp:Abs-Feuchte:Windchill:Wind:
Aussen-T/F 151 26-09-2010 06:10:02 9 C 7.32 g/m*3 9 C 0 km/h
152 26-09-2010 06:22:01 9.1 C 7.36 g/m*3 9.1 C 0 km/h
153 26-09-2010 06:34:01 8.8 C 7.31 g/m*3 8.8 C 0 km/h
154 26-09-2010 06:46:01 8.8 C 7.4 g/m*3 8.8 C 0 km/h
155 26-09-2010 06:58:01 8.8 C 7.49 g/m*3 8.8 C 0 km/h
156 26-09-2010 07:10:01 8.8 C 7.49 g/m*3 8.8 C 0 km/h
157 26-09-2010 07:22:02 8.5 C 7.26 g/m*3 8.5 C 0 km/h
158 26-09-2010 07:34:01 8.6 C 7.39 g/m*3 8.6 C 0 km/h
159 26-09-2010 07:46:02 8.9 C 7.62 g/m*3 8.9 C 0 km/h
160 26-09-2010 07:58:02 9.2 C 7.5 g/m*3 9.2 C 0 km/h
161 26-09-2010 08:10:01 9.5 C 7.55 g/m*3 9.5 C 0 km/h
162 26-09-2010 08:22:02 9.6 C 7.33 g/m*3 9.6 C 0 km/h
163 26-09-2010 08:34:01 9.7 C 7.19 g/m*3 9.7 C 0 km/h
164 26-09-2010 08:46:02 9.7 C 7.19 g/m*3 9.7 C 0 km/h
165 26-09-2010 08:58:02 9.6 C 7.24 g/m*3 9.6 C 0 km/h
166 26-09-2010 09:10:01 9.4 C 7.24 g/m*3 9.4 C 0 km/h
167 26-09-2010 09:22:01 9.4 C 7.33 g/m*3 9.4 C 0 km/h
168 26-09-2010 09:34:02 10.5 C 7.57 g/m*3 10.5 C 0 km/h
169 26-09-2010 09:46:01 11 C 7.11 g/m*3 11 C 0 km/h
170 26-09-2010 09:58:01 11 C 6.61 g/m*3 11 C 0 km/h
171 26-09-2010 10:10:02 11 C 6.61 g/m*3 11 C 0 km/h
172 26-09-2010 10:22:01 11.6 C 6.76 g/m*3 11.6 C 0 km/h
173 26-09-2010 10:34:02 12 C 6.61 g/m*3 12 C 0 km/h
174 26-09-2010 10:46:01 11.9 C 6.78 g/m*3 11.9 C 0 km/h
175 26-09-2010 10:58:01 12.7 C 7.01 g/m*3 12.7 C 0 km/h
Sensor: Nr:Datum:Temp:Abs-Feuchte:Windchill:Wind:
Aussen-T/F 176 26-09-2010 11:10:02 12.9 C 6.42 g/m*3 12.9 C 0 km/h
177 26-09-2010 11:22:01 13.1 C 6.5 g/m*3 13.1 C 0 km/h
178 26-09-2010 11:34:02 13.2 C 6.66 g/m*3 13.2 C 0 km/h
179 26-09-2010 11:46:02 13.5 C 6.32 g/m*3 13.5 C 0 km/h
180 26-09-2010 11:58:02 13.4 C 6.28 g/m*3 13.4 C 0 km/h
181 26-09-2010 12:10:01 14 C 6.39 g/m*3 14 C 0 km/h
182 26-09-2010 12:22:02 14.3 C 6.51 g/m*3 14.3 C 0 km/h
183 26-09-2010 12:34:01 14.6 C 6.51 g/m*3 14.6 C 0 km/h
184 26-09-2010 12:46:01 15 C 6.28 g/m*3 15 C 0 km/h
185 26-09-2010 12:58:01 14.5 C 6.22 g/m*3 14.5 C 0 km/h
186 26-09-2010 13:10:02 14.5 C 6.34 g/m*3 14.5 C 0 km/h
187 26-09-2010 13:22:01 13.2 C 7.12 g/m*3 13.2 C 0 km/h
188 26-09-2010 13:34:01 12.6 C 7.63 g/m*3 12.6 C 0 km/h
189 26-09-2010 13:46:01 12.4 C 8.3 g/m*3 12.4 C 0 km/h
190 26-09-2010 13:58:01 12.3 C 8.25 g/m*3 12.3 C 0 km/h
191 26-09-2010 14:10:01 13.2 C 8.61 g/m*3 13.2 C 0 km/h
192 26-09-2010 14:22:01 13.4 C 8.37 g/m*3 13.4 C 0 km/h
193 26-09-2010 14:34:01 13.3 C 8.43 g/m*3 13.3 C 0 km/h
194 26-09-2010 14:46:01 13.2 C 8.15 g/m*3 13.2 C 0 km/h
195 26-09-2010 14:58:01 13.4 C 7.9 g/m*3 13.4 C 0 km/h
196 26-09-2010 15:10:01 13.6 C 7.89 g/m*3 13.6 C 0 km/h
197 26-09-2010 15:22:02 13.9 C 8.39 g/m*3 13.9 C 0 km/h
198 26-09-2010 15:34:01 14.4 C 8.16 g/m*3 14.4 C 0 km/h
199 26-09-2010 15:46:02 14.5 C 7.96 g/m*3 14.5 C 0 km/h
200 26-09-2010 15:58:02 14.5 C 8.21 g/m*3 14.5 C 0 km/h
Sensor: Nr:Datum:Temp:Abs-Feuchte:Windchill:Wind:
Aussen-T/F 201 26-09-2010 16:10:01 13.7 C 7.7 g/m*3 13.7 C 0 km/h
202 26-09-2010 16:22:02 13.8 C 7.51 g/m*3 13.8 C 0 km/h
203 26-09-2010 16:34:01 15.7 C 7.09 g/m*3 15.7 C 0 km/h
204 26-09-2010 16:46:01 15.5 C 6.21 g/m*3 15.5 C 0 km/h
205 26-09-2010 16:58:01 15.9 C 6.5 g/m*3 15.9 C 0 km/h
206 26-09-2010 17:10:01 16.1 C 6.44 g/m*3 16.1 C 0 km/h
207 26-09-2010 17:22:01 15.6 C 6.38 g/m*3 15.6 C 0 km/h
208 26-09-2010 17:34:02 15.4 C 6.7 g/m*3 15.4 C 0 km/h
209 26-09-2010 17:46:01 14.6 C 6.76 g/m*3 14.6 C 0 km/h
210 26-09-2010 17:58:01 14.2 C 6.72 g/m*3 14.2 C 0 km/h
211 26-09-2010 18:10:02 13.6 C 6.83 g/m*3 13.6 C 0 km/h
212 26-09-2010 18:22:01 13.1 C 6.85 g/m*3 13.1 C 0 km/h
213 26-09-2010 18:34:01 12.9 C 6.99 g/m*3 12.9 C 0 km/h
214 26-09-2010 18:46:01 12.7 C 7.01 g/m*3 12.7 C 0 km/h
215 26-09-2010 18:58:01 12.5 C 7.04 g/m*3 12.5 C 0 km/h
216 26-09-2010 19:10:02 12.4 C 7.1 g/m*3 12.4 C 0 km/h
217 26-09-2010 19:22:01 12.4 C 7.1 g/m*3 12.4 C 0 km/h
218 26-09-2010 19:34:01 12.2 C 7.01 g/m*3 12.2 C 0 km/h
219 26-09-2010 19:46:01 12.1 C 7.18 g/m*3 12.1 C 0 km/h
220 26-09-2010 19:58:01 12.1 C 7.08 g/m*3 12.1 C 0 km/h
221 26-09-2010 20:10:02 12 C 7.25 g/m*3 12 C 0 km/h
222 26-09-2010 20:22:01 11.9 C 7.31 g/m*3 11.9 C 0 km/h
223 26-09-2010 20:34:01 11.7 C 7.22 g/m*3 11.7 C 0 km/h
224 26-09-2010 20:46:01 11.7 C 7.22 g/m*3 11.7 C 0 km/h
225 26-09-2010 20:58:01 11.6 C 7.07 g/m*3 11.6 C 0 km/h
Sensor: Nr:Datum:Temp:Abs-Feuchte:Windchill:Wind:
Aussen-T/F 226 26-09-2010 21:10:01 11.6 C 7.07 g/m*3 11.6 C 0 km/h
227 26-09-2010 21:22:01 11.4 C 7.08 g/m*3 11.4 C 0 km/h
228 26-09-2010 21:34:01 11.2 C 7.1 g/m*3 11.2 C 0 km/h
229 26-09-2010 21:46:01 10.9 C 7.16 g/m*3 10.9 C 0 km/h
230 26-09-2010 21:58:01 10.7 C 7.17 g/m*3 10.7 C 0 km/h
231 26-09-2010 22:10:01 10.3 C 6.99 g/m*3 10.3 C 0 km/h
232 26-09-2010 22:22:01 10 C 7.05 g/m*3 10 C 0 km/h
233 26-09-2010 22:34:01 9.7 C 7.1 g/m*3 9.7 C 0 km/h
234 26-09-2010 22:47:04 9.3 C 7.1 g/m*3 9.3 C 0 km/h
235 26-09-2010 22:59:04 9.2 C 7.05 g/m*3 9.2 C 0 km/h
236 26-09-2010 23:11:04 9 C 7.05 g/m*3 9 C 0 km/h
237 26-09-2010 23:23:04 8.9 C 7.18 g/m*3 8.9 C 0 km/h
238 26-09-2010 23:35:04 8.9 C 7.27 g/m*3 8.9 C 0 km/h
239 26-09-2010 23:47:04 8.8 C 7.22 g/m*3 8.8 C 0 km/h
240 26-09-2010 23:59:04 8.6 C 7.13 g/m*3 8.6 C 0 km/h
241 27-09-2010 00:11:04 8.5 C 7.17 g/m*3 8.5 C 0 km/h
242 27-09-2010 00:23:04 8.2 C 7.03 g/m*3 8.2 C 0 km/h
243 27-09-2010 00:35:04 8.1 C 6.99 g/m*3 8.1 C 0 km/h
244 27-09-2010 00:47:04 7.9 C 6.98 g/m*3 7.9 C 0 km/h
245 27-09-2010 00:59:04 7.9 C 7.15 g/m*3 7.9 C 0 km/h
246 27-09-2010 01:11:04 7.8 C 7.18 g/m*3 7.8 C 0 km/h
247 27-09-2010 01:23:04 7.6 C 7.09 g/m*3 7.6 C 0 km/h
248 27-09-2010 01:35:04 7.5 C 7.04 g/m*3 7.5 C 0 km/h
249 27-09-2010 01:47:04 7.3 C 6.95 g/m*3 7.3 C 0 km/h
250 27-09-2010 01:59:04 7.1 C 6.94 g/m*3 7.1 C 0 km/h
Sensor: Nr:Datum:Temp:Abs-Feuchte:Windchill:Wind:
Aussen-T/F 251 27-09-2010 02:11:04 7 C 6.9 g/m*3 7 C 0 km/h
252 27-09-2010 02:23:04 7 C 6.9 g/m*3 7 C 0 km/h
253 27-09-2010 02:35:05 6.8 C 6.81 g/m*3 6.8 C 0 km/h
254 27-09-2010 02:47:05 6.7 C 6.84 g/m*3 6.7 C 0 km/h
255 27-09-2010 02:59:05 6.7 C 6.84 g/m*3 6.7 C 0 km/h
256 27-09-2010 03:11:05 6.5 C 6.75 g/m*3 6.5 C 0 km/h
257 27-09-2010 03:23:05 6.7 C 6.84 g/m*3 6.7 C 0 km/h
258 27-09-2010 03:35:05 6.4 C 6.71 g/m*3 6.4 C 0 km/h
259 27-09-2010 03:47:05 6.3 C 6.66 g/m*3 6.3 C 0 km/h
260 27-09-2010 03:59:05 6.4 C 6.78 g/m*3 6.4 C 0 km/h
261 27-09-2010 04:11:05 6.5 C 6.9 g/m*3 6.5 C 0 km/h
262 27-09-2010 04:23:05 6.4 C 6.85 g/m*3 6.4 C 0 km/h
263 27-09-2010 04:35:05 6.3 C 6.81 g/m*3 6.3 C 0 km/h
264 27-09-2010 04:47:05 6.1 C 6.72 g/m*3 6.1 C 0 km/h
265 27-09-2010 04:59:05 5.9 C 6.71 g/m*3 5.9 C 0 km/h
266 27-09-2010 05:11:05 5.9 C 6.71 g/m*3 5.9 C 0 km/h
267 27-09-2010 05:23:05 6.1 C 6.72 g/m*3 6.1 C 0 km/h
268 27-09-2010 05:35:05 6.3 C 6.81 g/m*3 6.3 C 0 km/h
269 27-09-2010 05:47:05 6.4 C 6.93 g/m*3 6.4 C 0 km/h
270 27-09-2010 05:59:05 6.5 C 6.97 g/m*3 6.5 C 0 km/h
271 27-09-2010 06:11:05 6.5 C 6.97 g/m*3 6.5 C 0 km/h
272 27-09-2010 06:23:05 6.4 C 6.93 g/m*3 6.4 C 0 km/h
273 27-09-2010 06:35:05 6.2 C 6.84 g/m*3 6.2 C 0 km/h
274 27-09-2010 06:47:06 6.2 C 6.84 g/m*3 6.2 C 0 km/h
275 27-09-2010 06:59:06 6.3 C 6.88 g/m*3 6.3 C 0 km/h
Sensor: Nr:Datum:Temp:Abs-Feuchte:Windchill:Wind:
Aussen-T/F 276 27-09-2010 07:11:04 6.3 C 6.88 g/m*3 6.3 C 0 km/h
277 27-09-2010 07:23:04 6.6 C 7.02 g/m*3 6.6 C 0 km/h
278 27-09-2010 07:35:04 6.7 C 7.14 g/m*3 6.7 C 0 km/h
279 27-09-2010 07:47:02 6.9 C 7.24 g/m*3 6.9 C 0 km/h
280 27-09-2010 07:59:02 7.2 C 7.38 g/m*3 7.2 C 0 km/h
281 27-09-2010 08:11:02 7.5 C 7.52 g/m*3 7.5 C 0 km/h
282 27-09-2010 08:23:02 7.5 C 7.52 g/m*3 7.5 C 0 km/h
283 27-09-2010 08:35:02 7.6 C 7.57 g/m*3 7.6 C 0 km/h
284 27-09-2010 08:47:02 7.8 C 7.67 g/m*3 7.8 C 0 km/h
285 27-09-2010 08:59:02 8.1 C 7.74 g/m*3 8.1 C 0 km/h
286 27-09-2010 09:11:02 8.5 C 7.94 g/m*3 8.5 C 0 km/h
287 27-09-2010 09:23:02 8.8 C 8.09 g/m*3 8.8 C 0 km/h
288 27-09-2010 09:35:02 9.2 C 8.22 g/m*3 9.2 C 0 km/h
289 27-09-2010 09:47:01 9.6 C 8.34 g/m*3 9.6 C 0 km/h
290 27-09-2010 09:59:01 10.1 C 8.42 g/m*3 10.1 C 0 km/h
291 27-09-2010 10:11:02 10.4 C 8.29 g/m*3 10.4 C 0 km/h
292 27-09-2010 10:23:01 10.4 C 7.9 g/m*3 10.4 C 0 km/h
293 27-09-2010 10:35:02 10.8 C 7.51 g/m*3 10.8 C 0 km/h
294 27-09-2010 10:47:01 11 C 7.11 g/m*3 11 C 0 km/h
295 27-09-2010 10:59:01 11.2 C 6.99 g/m*3 11.2 C 0 km/h
296 27-09-2010 11:11:02 11.7 C 7.01 g/m*3 11.7 C 0 km/h
297 27-09-2010 11:23:01 11.8 C 6.74 g/m*3 11.8 C 0 km/h
298 27-09-2010 11:35:02 12.2 C 6.8 g/m*3 12.2 C 0 km/h
299 27-09-2010 11:47:01 12 C 6.61 g/m*3 12 C 0 km/h
300 27-09-2010 11:59:01 12.2 C 6.8 g/m*3 12.2 C 0 km/h
Sensor: Nr:Datum:Temp:Abs-Feuchte:Windchill:Wind:
Aussen-T/F 301 27-09-2010 12:11:02 12.4 C 6.77 g/m*3 12.4 C 0 km/h
302 27-09-2010 12:23:01 12.8 C 6.94 g/m*3 12.8 C 0 km/h
303 27-09-2010 12:35:02 12.8 C 6.83 g/m*3 12.8 C 0 km/h
304 27-09-2010 12:47:01 13 C 6.8 g/m*3 13 C 0 km/h
305 27-09-2010 12:59:01 12.9 C 6.76 g/m*3 12.9 C 0 km/h
306 27-09-2010 13:11:02 13.1 C 6.73 g/m*3 13.1 C 0 km/h
307 27-09-2010 13:23:02 13.4 C 6.97 g/m*3 13.4 C 0 km/h
308 27-09-2010 13:35:01 13.6 C 6.71 g/m*3 13.6 C 0 km/h
309 27-09-2010 13:47:02 13.6 C 6.71 g/m*3 13.6 C 0 km/h
310 27-09-2010 13:59:02 13.7 C 6.51 g/m*3 13.7 C 0 km/h
311 27-09-2010 14:11:01 13.4 C 6.51 g/m*3 13.4 C 0 km/h
312 27-09-2010 14:23:02 13.3 C 6.7 g/m*3 13.3 C 0 km/h
313 27-09-2010 14:35:01 13.4 C 6.74 g/m*3 13.4 C 0 km/h
314 27-09-2010 14:47:03 13.2 C 6.77 g/m*3 13.2 C 0 km/h
315 27-09-2010 14:59:03 13 C 6.58 g/m*3 13 C 0 km/h
316 27-09-2010 15:11:02 13.4 C 6.74 g/m*3 13.4 C 0 km/h
317 27-09-2010 15:23:02 13.6 C 6.59 g/m*3 13.6 C 0 km/h
318 27-09-2010 15:35:02 13.6 C 6.47 g/m*3 13.6 C 0 km/h
319 27-09-2010 15:47:02 13.2 C 6.66 g/m*3 13.2 C 0 km/h
320 27-09-2010 15:59:02 13.2 C 6.77 g/m*3 13.2 C 0 km/h
321 27-09-2010 16:11:01 13.4 C 6.97 g/m*3 13.4 C 0 km/h
322 27-09-2010 16:23:02 13.4 C 7.44 g/m*3 13.4 C 0 km/h
323 27-09-2010 16:35:02 13.4 C 7.44 g/m*3 13.4 C 0 km/h
324 27-09-2010 16:47:01 13.3 C 7.05 g/m*3 13.3 C 0 km/h
325 27-09-2010 16:59:01 13.4 C 7.09 g/m*3 13.4 C 0 km/h
Sensor: Nr:Datum:Temp:Abs-Feuchte:Windchill:Wind:
Aussen-T/F 326 27-09-2010 17:11:01 13.2 C 7.58 g/m*3 13.2 C 0 km/h
327 27-09-2010 17:23:01 13 C 7.6 g/m*3 13 C 0 km/h
328 27-09-2010 17:35:02 12.8 C 7.73 g/m*3 12.8 C 0 km/h
329 27-09-2010 17:47:02 12.8 C 7.84 g/m*3 12.8 C 0 km/h
330 27-09-2010 17:59:02 12.7 C 7.68 g/m*3 12.7 C 0 km/h
331 27-09-2010 18:11:02 12.5 C 7.59 g/m*3 12.5 C 0 km/h
332 27-09-2010 18:23:01 12.3 C 7.71 g/m*3 12.3 C 0 km/h
333 27-09-2010 18:35:02 11.9 C 7.73 g/m*3 11.9 C 0 km/h
334 27-09-2010 18:47:02 11.7 C 7.74 g/m*3 11.7 C 0 km/h
335 27-09-2010 18:59:02 11.3 C 7.85 g/m*3 11.3 C 0 km/h
336 27-09-2010 19:11:02 10.8 C 8.01 g/m*3 10.8 C 0 km/h
337 27-09-2010 19:23:02 10.7 C 8.15 g/m*3 10.7 C 0 km/h
338 27-09-2010 19:35:02 10.5 C 8.15 g/m*3 10.5 C 0 km/h
339 27-09-2010 19:47:02 10.5 C 8.15 g/m*3 10.5 C 0 km/h
340 27-09-2010 19:59:02 10.4 C 8.19 g/m*3 10.4 C 0 km/h
341 27-09-2010 20:11:02 10.3 C 8.24 g/m*3 10.3 C 0 km/h
342 27-09-2010 20:23:02 10.3 C 8.33 g/m*3 10.3 C 0 km/h
343 27-09-2010 20:35:02 10.3 C 8.43 g/m*3 10.3 C 0 km/h
344 27-09-2010 20:47:01 10.3 C 8.43 g/m*3 10.3 C 0 km/h
345 27-09-2010 20:59:01 10.3 C 8.52 g/m*3 10.3 C 0 km/h
346 27-09-2010 21:11:02 10.4 C 8.58 g/m*3 10.4 C 0 km/h
347 27-09-2010 21:23:01 10.2 C 8.47 g/m*3 10.2 C 0 km/h
348 27-09-2010 21:35:02 10.3 C 8.52 g/m*3 10.3 C 0 km/h
349 27-09-2010 21:47:02 10.4 C 8.58 g/m*3 10.4 C 0 km/h
350 27-09-2010 21:59:03 10.4 C 8.58 g/m*3 10.4 C 0 km/h
Sensor: Nr:Datum:Temp:Abs-Feuchte:Windchill:Wind:
Aussen-T/F 351 27-09-2010 22:11:02 10.4 C 8.58 g/m*3 10.4 C 0 km/h
352 27-09-2010 22:24:10 10.4 C 8.67 g/m*3 10.4 C 0 km/h
353 27-09-2010 22:36:10 10.2 C 8.56 g/m*3 10.2 C 0 km/h
354 27-09-2010 22:48:10 10.2 C 8.56 g/m*3 10.2 C 0 km/h
355 27-09-2010 23:00:10 10.2 C 8.56 g/m*3 10.2 C 0 km/h
356 27-09-2010 23:12:10 10.2 C 8.66 g/m*3 10.2 C 0 km/h
357 27-09-2010 23:24:10 10.2 C 8.66 g/m*3 10.2 C 0 km/h
358 27-09-2010 23:36:10 10.1 C 8.61 g/m*3 10.1 C 0 km/h
359 27-09-2010 23:48:10 10.1 C 8.7 g/m*3 10.1 C 0 km/h
360 28-09-2010 00:00:10 10.1 C 8.7 g/m*3 10.1 C 0 km/h
361 28-09-2010 00:12:10 10 C 8.64 g/m*3 10 C 0 km/h
362 28-09-2010 00:24:10 10 C 8.64 g/m*3 10 C 0 km/h
363 28-09-2010 00:36:10 10 C 8.64 g/m*3 10 C 0 km/h
364 28-09-2010 00:48:10 9.9 C 8.78 g/m*3 9.9 C 0 km/h
365 28-09-2010 01:00:10 10 C 8.74 g/m*3 10 C 0 km/h
366 28-09-2010 01:12:11 10 C 8.74 g/m*3 10 C 0 km/h
367 28-09-2010 01:24:11 10 C 8.74 g/m*3 10 C 0 km/h
368 28-09-2010 01:36:11 10 C 8.74 g/m*3 10 C 0 km/h
369 28-09-2010 01:48:11 9.9 C 8.78 g/m*3 9.9 C 0 km/h
370 28-09-2010 02:00:11 9.9 C 8.78 g/m*3 9.9 C 0 km/h
371 28-09-2010 02:12:11 9.9 C 8.78 g/m*3 9.9 C 0 km/h
372 28-09-2010 02:24:11 9.9 C 8.78 g/m*3 9.9 C 0 km/h
373 28-09-2010 02:36:11 9.9 C 8.78 g/m*3 9.9 C 0 km/h
374 28-09-2010 02:48:11 9.9 C 8.78 g/m*3 9.9 C 0 km/h
375 28-09-2010 03:00:11 9.9 C 8.87 g/m*3 9.9 C 0 km/h
Sensor: Nr:Datum:Temp:Abs-Feuchte:Windchill:Wind:
Aussen-T/F 376 28-09-2010 03:12:11 9.9 C 8.87 g/m*3 9.9 C 0 km/h
377 28-09-2010 03:24:11 9.9 C 8.87 g/m*3 9.9 C 0 km/h
378 28-09-2010 03:36:12 9.9 C 8.87 g/m*3 9.9 C 0 km/h
379 28-09-2010 03:48:12 9.9 C 8.87 g/m*3 9.9 C 0 km/h
380 28-09-2010 04:00:12 9.9 C 8.87 g/m*3 9.9 C 0 km/h
381 28-09-2010 04:12:12 9.9 C 8.87 g/m*3 9.9 C 0 km/h
382 28-09-2010 04:24:12 9.9 C 8.87 g/m*3 9.9 C 0 km/h
383 28-09-2010 04:36:12 9.9 C 8.87 g/m*3 9.9 C 0 km/h
384 28-09-2010 04:48:12 10 C 8.83 g/m*3 10 C 0 km/h
385 28-09-2010 05:00:12 10 C 8.93 g/m*3 10 C 0 km/h
386 28-09-2010 05:12:12 10 C 8.93 g/m*3 10 C 0 km/h
387 28-09-2010 05:24:12 10 C 8.93 g/m*3 10 C 0 km/h
388 28-09-2010 05:36:12 10 C 8.93 g/m*3 10 C 0 km/h
389 28-09-2010 05:48:12 10 C 8.93 g/m*3 10 C 0 km/h
390 28-09-2010 06:00:12 10.1 C 8.98 g/m*3 10.1 C 0 km/h
391 28-09-2010 06:12:12 10.1 C 8.98 g/m*3 10.1 C 0 km/h
392 28-09-2010 06:24:12 10.1 C 8.98 g/m*3 10.1 C 0 km/h
393 28-09-2010 06:36:12 10.1 C 8.98 g/m*3 10.1 C 0 km/h
394 28-09-2010 06:48:12 10 C 8.93 g/m*3 10 C 0 km/h
395 28-09-2010 07:00:12 10 C 8.93 g/m*3 10 C 0 km/h
396 28-09-2010 07:12:12 10 C 8.93 g/m*3 10 C 0 km/h
397 28-09-2010 07:24:12 10 C 8.93 g/m*3 10 C 0 km/h
398 28-09-2010 07:36:13 10 C 8.93 g/m*3 10 C 0 km/h
399 28-09-2010 07:48:01 10 C 8.93 g/m*3 10 C 0 km/h
400 28-09-2010 08:00:01 10 C 8.93 g/m*3 10 C 0 km/h
Sensor: Nr:Datum:Temp:Abs-Feuchte:Windchill:Wind:
Aussen-T/F 401 28-09-2010 08:12:02 10 C 8.93 g/m*3 10 C 0 km/h
402 28-09-2010 08:24:02 10 C 8.93 g/m*3 10 C 0 km/h
403 28-09-2010 08:36:02 10.1 C 8.98 g/m*3 10.1 C 0 km/h
404 28-09-2010 08:48:03 10.1 C 8.98 g/m*3 10.1 C 0 km/h
405 28-09-2010 09:00:03 10.1 C 8.98 g/m*3 10.1 C 0 km/h
406 28-09-2010 09:12:03 10.2 C 9.04 g/m*3 10.2 C 0 km/h
407 28-09-2010 09:24:02 10.2 C 9.04 g/m*3 10.2 C 0 km/h
408 28-09-2010 09:36:02 10.3 C 9.1 g/m*3 10.3 C 0 km/h
409 28-09-2010 09:48:02 10.4 C 9.16 g/m*3 10.4 C 0 km/h
410 28-09-2010 10:00:02 10.4 C 9.16 g/m*3 10.4 C 0 km/h
411 28-09-2010 10:12:02 10.5 C 9.21 g/m*3 10.5 C 0 km/h
412 28-09-2010 10:24:01 10.5 C 9.21 g/m*3 10.5 C 0 km/h
413 28-09-2010 10:36:02 10.7 C 9.33 g/m*3 10.7 C 0 km/h
414 28-09-2010 10:48:02 10.8 C 9.39 g/m*3 10.8 C 0 km/h
415 28-09-2010 11:00:02 11 C 9.51 g/m*3 11 C 0 km/h
416 28-09-2010 11:12:02 11 C 9.51 g/m*3 11 C 0 km/h
417 28-09-2010 11:24:02 11.2 C 9.63 g/m*3 11.2 C 0 km/h
418 28-09-2010 11:36:02 11.3 C 9.69 g/m*3 11.3 C 0 km/h
419 28-09-2010 11:48:02 11.4 C 9.75 g/m*3 11.4 C 0 km/h
420 28-09-2010 12:00:02 11.4 C 9.75 g/m*3 11.4 C 0 km/h
421 28-09-2010 12:12:02 11.4 C 9.65 g/m*3 11.4 C 0 km/h
422 28-09-2010 12:24:02 11.4 C 9.65 g/m*3 11.4 C 0 km/h
423 28-09-2010 12:36:02 11.5 C 9.71 g/m*3 11.5 C 0 km/h
424 28-09-2010 12:48:02 11.7 C 9.83 g/m*3 11.7 C 0 km/h
425 28-09-2010 13:00:02 11.6 C 9.67 g/m*3 11.6 C 0 km/h
Sensor: Nr:Datum:Temp:Abs-Feuchte:Windchill:Wind:
Aussen-T/F 426 28-09-2010 13:12:02 11.6 C 9.67 g/m*3 11.6 C 0 km/h
427 28-09-2010 13:24:03 11.8 C 9.79 g/m*3 11.8 C 0 km/h
428 28-09-2010 13:36:02 11.8 C 9.68 g/m*3 11.8 C 0 km/h
429 28-09-2010 13:48:03 11.9 C 9.74 g/m*3 11.9 C 0 km/h
430 28-09-2010 14:00:03 11.9 C 9.74 g/m*3 11.9 C 0 km/h
431 28-09-2010 14:12:02 11.8 C 9.68 g/m*3 11.8 C 0 km/h
432 28-09-2010 14:24:02 11.7 C 9.62 g/m*3 11.7 C 0 km/h
433 28-09-2010 14:36:02 11.7 C 9.62 g/m*3 11.7 C 0 km/h
434 28-09-2010 14:48:02 11.7 C 9.62 g/m*3 11.7 C 0 km/h
435 28-09-2010 15:00:02 11.7 C 9.62 g/m*3 11.7 C 0 km/h
436 28-09-2010 15:12:02 11.7 C 9.73 g/m*3 11.7 C 0 km/h
437 28-09-2010 15:24:02 11.7 C 9.73 g/m*3 11.7 C 0 km/h
438 28-09-2010 15:36:02 11.8 C 9.79 g/m*3 11.8 C 0 km/h
439 28-09-2010 15:48:02 11.8 C 9.79 g/m*3 11.8 C 0 km/h
440 28-09-2010 16:00:02 11.8 C 9.79 g/m*3 11.8 C 0 km/h
441 28-09-2010 16:12:01 11.8 C 9.79 g/m*3 11.8 C 0 km/h
442 28-09-2010 16:24:01 11.8 C 9.79 g/m*3 11.8 C 0 km/h
443 28-09-2010 16:36:02 11.9 C 9.96 g/m*3 11.9 C 0 km/h
444 28-09-2010 16:48:02 11.9 C 9.96 g/m*3 11.9 C 0 km/h
445 28-09-2010 17:00:02 11.9 C 9.96 g/m*3 11.9 C 0 km/h
446 28-09-2010 17:12:02 12 C 10.02 g/m*3 12 C 0 km/h
447 28-09-2010 17:24:02 12 C 10.02 g/m*3 12 C 0 km/h
448 28-09-2010 17:36:02 12 C 10.02 g/m*3 12 C 0 km/h
449 28-09-2010 17:48:02 12 C 10.02 g/m*3 12 C 0 km/h
450 28-09-2010 18:00:02 11.9 C 9.96 g/m*3 11.9 C 0 km/h
Sensor: Nr:Datum:Temp:Abs-Feuchte:Windchill:Wind:
Aussen-T/F 451 28-09-2010 18:12:02 11.9 C 9.96 g/m*3 11.9 C 0 km/h
452 28-09-2010 18:24:02 11.9 C 10.06 g/m*3 11.9 C 0 km/h
453 28-09-2010 18:36:02 11.8 C 10 g/m*3 11.8 C 0 km/h
454 28-09-2010 18:48:01 11.8 C 10 g/m*3 11.8 C 0 km/h
455 28-09-2010 19:00:01 11.8 C 10 g/m*3 11.8 C 0 km/h
456 28-09-2010 19:12:02 11.7 C 9.94 g/m*3 11.7 C 0 km/h
457 28-09-2010 19:24:01 11.7 C 9.94 g/m*3 11.7 C 0 km/h
458 28-09-2010 19:36:01 11.7 C 9.94 g/m*3 11.7 C 0 km/h
459 28-09-2010 19:48:01 11.7 C 9.94 g/m*3 11.7 C 0 km/h
460 28-09-2010 20:00:01 11.6 C 9.87 g/m*3 11.6 C 0 km/h
461 28-09-2010 20:12:02 11.6 C 9.87 g/m*3 11.6 C 0 km/h
462 28-09-2010 20:24:02 11.6 C 9.87 g/m*3 11.6 C 0 km/h
463 28-09-2010 20:36:01 11.6 C 9.87 g/m*3 11.6 C 0 km/h
464 28-09-2010 20:48:01 11.6 C 9.87 g/m*3 11.6 C 0 km/h
465 28-09-2010 21:00:01 11.6 C 9.87 g/m*3 11.6 C 0 km/h
466 28-09-2010 21:12:01 11.6 C 9.87 g/m*3 11.6 C 0 km/h
467 28-09-2010 21:24:02 11.6 C 9.87 g/m*3 11.6 C 0 km/h
468 28-09-2010 21:36:01 11.5 C 9.81 g/m*3 11.5 C 0 km/h
469 28-09-2010 21:48:03 11.6 C 9.87 g/m*3 11.6 C 0 km/h
470 28-09-2010 22:00:03 11.6 C 9.87 g/m*3 11.6 C 0 km/h
471 28-09-2010 22:12:02 11.6 C 9.87 g/m*3 11.6 C 0 km/h
472 28-09-2010 22:24:03 11.6 C 9.87 g/m*3 11.6 C 0 km/h
473 28-09-2010 22:36:02 11.7 C 9.94 g/m*3 11.7 C 0 km/h
474 28-09-2010 22:48:03 11.6 C 9.87 g/m*3 11.6 C 0 km/h
475 28-09-2010 23:00:03 11.6 C 9.87 g/m*3 11.6 C 0 km/h
Sensor: Nr:Datum:Temp:Abs-Feuchte:Windchill:Wind:
Aussen-T/F 476 28-09-2010 23:12:02 11.6 C 9.87 g/m*3 11.6 C 0 km/h
477 28-09-2010 23:24:02 11.6 C 9.87 g/m*3 11.6 C 0 km/h
478 28-09-2010 23:36:02 11.6 C 9.87 g/m*3 11.6 C 0 km/h
479 28-09-2010 23:48:02 11.6 C 9.87 g/m*3 11.6 C 0 km/h
480 29-09-2010 00:00:02 11.6 C 9.87 g/m*3 11.6 C 0 km/h
481 29-09-2010 00:12:02 11.7 C 9.94 g/m*3 11.7 C 0 km/h
482 29-09-2010 00:24:02 11.6 C 9.87 g/m*3 11.6 C 0 km/h
483 29-09-2010 00:36:02 11.7 C 9.94 g/m*3 11.7 C 0 km/h
484 29-09-2010 00:48:02 11.6 C 9.87 g/m*3 11.6 C 0 km/h
485 29-09-2010 01:00:02 11.7 C 9.94 g/m*3 11.7 C 0 km/h
486 29-09-2010 01:12:03 11.6 C 9.87 g/m*3 11.6 C 0 km/h
487 29-09-2010 01:24:02 11.6 C 9.87 g/m*3 11.6 C 0 km/h
488 29-09-2010 01:36:02 11.6 C 9.87 g/m*3 11.6 C 0 km/h
489 29-09-2010 01:48:01 11.6 C 9.87 g/m*3 11.6 C 0 km/h
490 29-09-2010 02:00:01 11.6 C 9.87 g/m*3 11.6 C 0 km/h
491 29-09-2010 02:12:02 11.6 C 9.87 g/m*3 11.6 C 0 km/h
492 29-09-2010 02:24:01 11.5 C 9.81 g/m*3 11.5 C 0 km/h
493 29-09-2010 02:36:02 11.5 C 9.81 g/m*3 11.5 C 0 km/h
494 29-09-2010 02:48:01 11.6 C 9.87 g/m*3 11.6 C 0 km/h
495 29-09-2010 03:00:01 11.4 C 9.75 g/m*3 11.4 C 0 km/h
496 29-09-2010 03:12:01 11.3 C 9.69 g/m*3 11.3 C 0 km/h
497 29-09-2010 03:24:02 11.4 C 9.75 g/m*3 11.4 C 0 km/h
498 29-09-2010 03:36:01 11.7 C 9.94 g/m*3 11.7 C 0 km/h
499 29-09-2010 03:48:01 11.6 C 9.87 g/m*3 11.6 C 0 km/h
500 29-09-2010 04:00:01 11.6 C 9.87 g/m*3 11.6 C 0 km/h
Sensor: Nr:Datum:Temp:Abs-Feuchte:Windchill:Wind:
Aussen-T/F 501 29-09-2010 04:12:02 11.6 C 9.87 g/m*3 11.6 C 0 km/h
502 29-09-2010 04:24:01 11.6 C 9.87 g/m*3 11.6 C 0 km/h
503 29-09-2010 04:36:01 11.3 C 9.69 g/m*3 11.3 C 0 km/h
504 29-09-2010 04:48:01 11.3 C 9.69 g/m*3 11.3 C 0 km/h
505 29-09-2010 05:00:01 11.4 C 9.75 g/m*3 11.4 C 0 km/h
506 29-09-2010 05:12:02 11.4 C 9.75 g/m*3 11.4 C 0 km/h
507 29-09-2010 05:24:01 11.4 C 9.75 g/m*3 11.4 C 0 km/h
508 29-09-2010 05:36:01 11.4 C 9.75 g/m*3 11.4 C 0 km/h
509 29-09-2010 05:48:01 11.4 C 9.75 g/m*3 11.4 C 0 km/h
510 29-09-2010 06:00:01 11.7 C 9.94 g/m*3 11.7 C 0 km/h
511 29-09-2010 06:12:01 11.6 C 9.87 g/m*3 11.6 C 0 km/h
512 29-09-2010 06:24:02 11.5 C 9.81 g/m*3 11.5 C 0 km/h
513 29-09-2010 06:36:01 11.5 C 9.81 g/m*3 11.5 C 0 km/h
514 29-09-2010 06:48:02 11.3 C 9.69 g/m*3 11.3 C 0 km/h
515 29-09-2010 07:00:02 11.1 C 9.57 g/m*3 11.1 C 0 km/h
516 29-09-2010 07:12:01 10.8 C 9.39 g/m*3 10.8 C 0 km/h
517 29-09-2010 07:24:02 11 C 9.51 g/m*3 11 C 0 km/h
518 29-09-2010 07:36:01 11.2 C 9.63 g/m*3 11.2 C 0 km/h
519 29-09-2010 07:48:02 11.1 C 9.57 g/m*3 11.1 C 0 km/h
520 29-09-2010 08:00:02 11 C 9.51 g/m*3 11 C 0 km/h
521 29-09-2010 08:12:01 11.2 C 9.63 g/m*3 11.2 C 0 km/h
522 29-09-2010 08:24:01 11.2 C 9.63 g/m*3 11.2 C 0 km/h
523 29-09-2010 08:36:01 11.1 C 9.57 g/m*3 11.1 C 0 km/h
524 29-09-2010 08:48:02 11.4 C 9.75 g/m*3 11.4 C 0 km/h
525 29-09-2010 09:00:02 11.6 C 9.87 g/m*3 11.6 C 0 km/h
Sensor: Nr:Datum:Temp:Abs-Feuchte:Windchill:Wind:
Aussen-T/F 526 29-09-2010 09:12:01 11.2 C 9.53 g/m*3 11.2 C 0 km/h
527 29-09-2010 09:24:01 10.8 C 9.19 g/m*3 10.8 C 0 km/h
528 29-09-2010 09:36:02 11.7 C 9.62 g/m*3 11.7 C 0 km/h
529 29-09-2010 09:48:01 11.9 C 9.64 g/m*3 11.9 C 0 km/h
530 29-09-2010 10:00:01 12.1 C 9.22 g/m*3 12.1 C 0 km/h
531 29-09-2010 10:12:02 12.5 C 8.91 g/m*3 12.5 C 0 km/h
532 29-09-2010 10:24:01 12.9 C 8.79 g/m*3 12.9 C 0 km/h
533 29-09-2010 10:36:02 13.4 C 8.95 g/m*3 13.4 C 0 km/h
534 29-09-2010 10:48:01 13.7 C 9 g/m*3 13.7 C 0 km/h
535 29-09-2010 11:00:01 13.8 C 8.94 g/m*3 13.8 C 0 km/h
536 29-09-2010 11:12:02 13.7 C 8.53 g/m*3 13.7 C 0 km/h
537 29-09-2010 11:24:01 13.8 C 8.46 g/m*3 13.8 C 0 km/h
538 29-09-2010 11:36:01 14.1 C 8.01 g/m*3 14.1 C 0 km/h
539 29-09-2010 11:48:01 14.4 C 8.16 g/m*3 14.4 C 0 km/h
540 29-09-2010 12:00:01 14.5 C 8.21 g/m*3 14.5 C 0 km/h
541 29-09-2010 12:12:01 14.6 C 8.01 g/m*3 14.6 C 0 km/h
542 29-09-2010 12:24:01 14.1 C 7.52 g/m*3 14.1 C 0 km/h
543 29-09-2010 12:36:01 14 C 8.08 g/m*3 14 C 0 km/h
544 29-09-2010 12:48:01 14.8 C 8.36 g/m*3 14.8 C 0 km/h
545 29-09-2010 13:00:01 15.4 C 8.15 g/m*3 15.4 C 0 km/h
546 29-09-2010 13:12:01 15.7 C 7.89 g/m*3 15.7 C 0 km/h
547 29-09-2010 13:24:02 15.8 C 7.81 g/m*3 15.8 C 0 km/h
548 29-09-2010 13:36:01 15.9 C 7.99 g/m*3 15.9 C 0 km/h
549 29-09-2010 13:48:02 15.9 C 7.58 g/m*3 15.9 C 0 km/h
550 29-09-2010 14:00:02 16.3 C 7.35 g/m*3 16.3 C 0 km/h
Sensor: Nr:Datum:Temp:Abs-Feuchte:Windchill:Wind:
Aussen-T/F 551 29-09-2010 14:12:01 15.6 C 7.58 g/m*3 15.6 C 0 km/h
552 29-09-2010 14:24:02 15.8 C 7.94 g/m*3 15.8 C 0 km/h
553 29-09-2010 14:36:01 17.4 C 7.85 g/m*3 17.4 C 0 km/h
554 29-09-2010 14:48:02 19 C 7.33 g/m*3 19 C 0 km/h
555 29-09-2010 15:00:02 18.8 C 6.76 g/m*3 18.8 C 0 km/h
556 29-09-2010 15:12:01 18.8 C 6.93 g/m*3 18.8 C 0 km/h
557 29-09-2010 15:24:01 18.9 C 6.97 g/m*3 18.9 C 0 km/h
558 29-09-2010 15:36:02 19.6 C 6.92 g/m*3 19.6 C 0 km/h
559 29-09-2010 15:48:01 19.7 C 6.79 g/m*3 19.7 C 0 km/h
560 29-09-2010 16:00:02 18.8 C 7.41 g/m*3 18.8 C 0 km/h
561 29-09-2010 16:12:01 18.1 C 7.26 g/m*3 18.1 C 0 km/h
562 29-09-2010 16:24:01 18.1 C 7.57 g/m*3 18.1 C 0 km/h
563 29-09-2010 16:36:02 17.6 C 7.95 g/m*3 17.6 C 0 km/h
564 29-09-2010 16:48:01 18.1 C 7.88 g/m*3 18.1 C 0 km/h
565 29-09-2010 17:00:02 19 C 7.33 g/m*3 19 C 0 km/h
566 29-09-2010 17:12:01 19.4 C 7.01 g/m*3 19.4 C 0 km/h
567 29-09-2010 17:24:01 18.6 C 7.16 g/m*3 18.6 C 0 km/h
568 29-09-2010 17:36:02 17.6 C 7.95 g/m*3 17.6 C 0 km/h
569 29-09-2010 17:48:01 16.9 C 8.05 g/m*3 16.9 C 0 km/h
570 29-09-2010 18:00:01 15.9 C 7.58 g/m*3 15.9 C 0 km/h
571 29-09-2010 18:12:04 15.2 C 7.92 g/m*3 15.2 C 0 km/h
572 29-09-2010 18:24:02 14.4 C 7.91 g/m*3 14.4 C 0 km/h
573 29-09-2010 18:36:02 14 C 7.84 g/m*3 14 C 0 km/h
574 29-09-2010 18:48:01 13.6 C 7.89 g/m*3 13.6 C 0 km/h
575 29-09-2010 19:00:01 13.2 C 7.81 g/m*3 13.2 C 0 km/h
Sensor: Nr:Datum:Temp:Abs-Feuchte:Windchill:Wind:
Aussen-T/F 576 29-09-2010 19:12:01 13.1 C 7.76 g/m*3 13.1 C 0 km/h
577 29-09-2010 19:24:01 13 C 7.71 g/m*3 13 C 0 km/h
578 29-09-2010 19:36:02 13 C 7.6 g/m*3 13 C 0 km/h
579 29-09-2010 19:48:01 13.1 C 7.53 g/m*3 13.1 C 0 km/h
580 29-09-2010 20:00:01 13.3 C 7.63 g/m*3 13.3 C 0 km/h
581 29-09-2010 20:12:02 13.2 C 7.81 g/m*3 13.2 C 0 km/h
582 29-09-2010 20:24:01 13.2 C 7.81 g/m*3 13.2 C 0 km/h
583 29-09-2010 20:36:02 13 C 7.6 g/m*3 13 C 0 km/h
584 29-09-2010 20:48:01 12.9 C 7.66 g/m*3 12.9 C 0 km/h
585 29-09-2010 21:00:01 12.9 C 7.66 g/m*3 12.9 C 0 km/h
586 29-09-2010 21:12:02 12.8 C 7.84 g/m*3 12.8 C 0 km/h
587 29-09-2010 21:24:01 12.4 C 7.98 g/m*3 12.4 C 0 km/h
588 29-09-2010 21:38:05 12.2 C 8.09 g/m*3 12.2 C 0 km/h
589 29-09-2010 21:50:05 12.2 C 8.09 g/m*3 12.2 C 0 km/h
590 29-09-2010 22:02:05 12.3 C 8.25 g/m*3 12.3 C 0 km/h
591 29-09-2010 22:14:05 12.4 C 8.3 g/m*3 12.4 C 0 km/h
592 29-09-2010 22:26:05 12.4 C 8.41 g/m*3 12.4 C 0 km/h
593 29-09-2010 22:38:06 12.5 C 8.47 g/m*3 12.5 C 0 km/h
594 29-09-2010 22:50:06 12.3 C 8.36 g/m*3 12.3 C 0 km/h
595 29-09-2010 23:02:06 12 C 8.21 g/m*3 12 C 0 km/h
596 29-09-2010 23:14:06 11.8 C 8.31 g/m*3 11.8 C 0 km/h
597 29-09-2010 23:26:06 11.8 C 8.42 g/m*3 11.8 C 0 km/h
598 29-09-2010 23:38:06 12 C 8.31 g/m*3 12 C 0 km/h
599 29-09-2010 23:50:06 12.2 C 8.42 g/m*3 12.2 C 0 km/h

Legende:
   Min
   Max


Maximal/Minimal-Werte vom 23.02.2003 - 30.09.2020

Sensor Min Max Avg
Temp
(Aussen-T/F)
-16.4 °C
20-12-2009  01:30:01
40.4 °C
25-07-2019  16:20:00
11.32 °C

Die Daten stammen von einer Davis Vantage Pro 2 Wetter-Station und werden unter Linux mit der Software wview2wettercgi und aufbereitet. Alle Angaben erfolgen ohne Gewähr für ihre Vollständigkeit oder Richtigkeit.
Kontakt: Rainer Krienke krienke@uni-koblenz.de . Meine Webseiten an der Uni Koblenz oder privat.
Version: $Revision: 0.78 $